Location: Ferintosh
(52.7647°N, 112.9692°W)
Time: 19:00:17
(UTC+00:00)

A-11 Canister half - Pass Details

Date: 29 May 2024
Orbit: 1515 x 1685 km, 47.2° (Epoch: 12 June)

Event Time Altitude Azimuth Distance (km) Brightness Sun altitude
Rises 06:19:25 0° 191° (SSW) 4,831 - -14.0°
Reaches altitude 10° 06:23:33 10° 177° (S) 3,818 - -14.2°
Exits shadow 06:26:58 18° 158° (SSE) 3,211 10.0 -14.3°
Maximum altitude 06:30:09 21° 133° (SE) 2,988 10.0 -14.4°
Drops below altitude 10° 06:36:37 10° 89° (E) 3,738 10.9 -14.6°
Sets 06:40:35 0° 75° (ENE) 4,701 11.6 -14.8°
